Location: Castelldefells
(41.2777°N, 1.9688°E)
Time: 05:19:42
(UTC+00:00)

Daily predictions for brighter satellites

Satellite Brightness Start Highest point End
(mag) Time Altitude Azimuth Time Altitude Azimuth Time Altitude Azimuth
Cosmos 2360 Rocket 4.4 01:35:08 21° NNE 01:35:08 21° NNE 01:36:52 10° NNE
Cosmos 2219 Rocket 4.1 01:53:02 25° NE 01:53:02 25° NE 01:55:34 10° NE
ADEOS II 4.3 01:46:19 10° NNE 01:48:05 21° NNE 01:48:05 21° NNE
CZ-2D R/B 4.4 01:57:47 10° N 01:59:12 18° N 01:59:12 18° N
SL-16 R/B 4.4 02:08:10 18° N 02:08:10 18° N 02:09:54 10° N
USA 229 DEB 4.1 02:17:34 54° NE 02:17:34 54° NE 02:22:46 10° NE
USA 229 4.1 02:17:39 54° NE 02:17:39 54° NE 02:22:51 10° NE
COSMOS 2428 3.6 02:26:57 45° NE 02:26:57 45° NE 02:30:55 10° NNE
IDEFIX/ARIANE 42P 3.8 02:32:04 10° NNE 02:35:13 37° NNE 02:35:13 37° NNE
NOSS 3-1 (A) 3.9 02:39:09 50° NNE 02:39:09 50° NNE 02:43:45 10° NNE
Cosmos 2322 Rocket 4.3 02:44:11 16° NNW 02:44:11 16° NNW 02:46:06 10° N
Cosmos 2237 Rocket 3.3 02:49:49 35° SE 02:50:50 38° ESE 02:56:04 10° NE
Meteor 2-16 Rocket 4.4 02:49:08 10° N 02:55:19 80° E 02:55:48 74° SE
Cosmos 1850 Rocket 4.5 02:51:06 10° NNW 02:56:18 58° ENE 03:01:29 10° SSE
CZ-2C R/B 3.9 02:52:56 10° NNE 02:57:39 34° E 02:59:51 24° SE
Meteor 2-21 Rocket 4.5 02:52:30 10° N 02:57:52 68° NNW 02:57:52 68° NNW
Cosmos 2333 Rocket 3.2 03:07:52 34° NNW 03:07:52 34° NNW 03:11:56 10° N
Meteor 1-25 Rocket 4.2 03:01:03 10° N 03:06:57 90° E 03:07:23 78° S
Resurs 1-4 Rocket 4.5 03:04:39 10° NNW 03:04:58 11° NNW 03:04:58 11° NNW
ATLAS 5 CENTAUR R/B 4.0 03:09:52 13° NNW 03:09:52 13° NNW 03:11:04 10° N
Cosmos 1782 4.3 03:11:04 33° NNE 03:11:04 33° NNE 03:13:22 10° NNE
MSX 3.9 03:04:03 10° N 03:09:17 62° NW 03:09:17 62° NW
Cosmos 1812 4.0 03:14:44 38° E 03:14:44 38° E 03:18:18 10° NNE
Cosmos 2180 Rocket 4.4 03:15:39 64° WNW 03:15:39 64° WNW 03:21:46 10° N
Cosmos 2360 Rocket 4.1 03:16:54 17° NW 03:16:54 17° NW 03:19:36 10° N
Cosmos 1452 Rocket 3.9 03:19:36 49° NW 03:19:36 49° NW 03:24:01 10° N
IRS-1C 3.9 03:13:52 10° N 03:19:13 78° WNW 03:19:22 77° W
ALOS 3.7 03:15:28 10° NNE 03:19:46 36° E 03:23:00 16° SSE
Cosmos 1655 Rocket 3.8 03:14:50 10° N 03:21:05 86° W 03:25:30 21° S
ERS-1 4.4 03:16:51 10° NNE 03:22:03 89° E 03:22:44 68° S
Cosmos 1340 Rocket 3.3 03:23:10 10° N 03:26:28 55° NNE 03:26:28 55° NNE
CZ-4C R/B 3.4 03:25:34 20° SSE 03:27:57 31° ESE 03:32:41 10° NE
ARIANE 5 R/B 2.3 03:23:08 10° N 03:28:14 79° WNW 03:28:42 71° SW
SL-08 R/B 3.1 03:28:30 46° SSE 03:29:53 88° ENE 03:34:31 10° NNW
ADEOS II 4.0 03:27:10 10° NNW 03:29:01 16° NW 03:29:01 16° NW
Cosmos 1331 Rocket 3.8 03:31:59 61° SSW 03:32:55 85° WNW 03:38:07 10° NNE
Cosmos 2219 Rocket 3.3 03:34:46 28° NW 03:34:46 28° NW 03:39:12 10° N
FENGYUN 3A 4.0 03:31:12 10° NNE 03:36:33 63° E 03:41:00 15° S
Cosmos 1666 Rocket 3.4 03:34:42 10° N 03:39:02 89° WSW 03:40:36 39° S
Cosmos 1328 Rocket 3.6 03:39:10 39° S 03:40:44 74° E 03:45:03 10° NNE
STPSAT 2 (USA 217) 4.5 03:41:50 66° W 03:42:11 70° WNW 03:46:44 10° NNE
Meteor 2-15 Rocket 4.3 03:39:18 24° S 03:43:12 85° W 03:49:19 10° N
Cosmos 2266 Rocket 3.9 03:41:02 10° NNW 03:47:04 59° W 03:52:46 11° S
Cosmos 2278 Rocket 2.1 03:48:23 10° NNW 03:54:01 67° WSW 03:59:38 10° SSE
NOSS 2-2 (D) 3.6 03:55:52 39° NW 03:55:52 39° NW 03:58:57 10° NNE
Cosmos 44 3.8 03:54:26 39° W 03:55:53 50° NW 04:01:09 10° NNE
NOSS 0 Rocket 4.2 03:55:13 35° WSW 03:57:26 50° WNW 04:03:29 10° NNE
SL-16 R/B 3.2 03:52:58 10° S 03:58:20 47° ESE 04:03:44 10° NE
Spot 4 Rocket 3.9 03:55:18 10° N 04:00:26 69° WNW 04:03:44 22° SSW
Cosmos 1943 Rocket 4.1 03:56:20 10° N 04:01:23 32° ENE 04:06:23 10° ESE
Meteor 1-5 Rocket 4.0 03:56:23 10° N 04:01:43 88° W 04:07:01 10° S
Cosmos 1666 2.5 03:58:09 10° N 04:01:56 84° W 04:05:43 10° S
Cosmos 1151 Rocket 3.4 04:02:59 41° WSW 04:03:36 43° WNW 04:07:47 10° N
GPS 2-04 Rocket1 3.8 04:06:00 27° SSW 04:06:55 30° SSE 04:10:26 10° ESE
Meteor 1-10 Rocket 4.4 04:02:21 10° S 04:07:54 74° E 04:13:34 10° NNE
Cosmos 968 Rocket 4.3 04:03:11 10° N 04:08:21 54° ENE 04:13:27 10° SE
CZ-2D R/B 4.1 04:04:45 10° N 04:08:46 36° WNW 04:09:29 34° W
COSMOS 2428 4.1 04:08:59 19° WNW 04:10:03 20° NW 04:14:12 10° N
NOSS 2-2 (E) 4.5 04:12:26 22° NW 04:12:35 22° NW 04:15:31 10° N
SL-24 R/B - RUBIN 2 4.4 04:13:16 13° SSW 04:19:02 85° ESE 04:24:47 10° NE
X-37B 2.3 04:18:17 18° S 04:19:50 26° SSE 04:22:33 10° E
Cosmos 2285 Rocket 4.3 04:16:42 21° SW 04:20:33 45° WNW 04:26:35 10° N
Cosmos 1633 Rocket 3.6 04:18:46 10° NNW 04:22:48 35° W 04:26:48 10° SSW
MOS 1 Rocket 3.7 04:18:42 10° SSW 04:22:57 35° W 04:27:01 10° NNW
Cosmos 1244 Rocket 4.4 04:17:23 10° N 04:23:40 84° W 04:29:51 10° S
Cosmos 1980 4.4 04:22:15 23° WSW 04:25:02 35° WNW 04:30:13 10° N
Cosmos 1536 4.0 04:21:46 10° N 04:25:36 45° E 04:29:25 10° SSE
CZ-4B R/B 4.3 04:23:46 10° N 04:28:16 32° WNW 04:31:14 18° WSW
Cosmos 1515 Rocket 3.5 04:24:26 10° SSW 04:28:42 59° W 04:33:00 10° N
Cosmos 2237 Rocket 3.0 04:31:41 19° WSW 04:34:56 32° WNW 04:40:01 10° N
CZ-2C R/B 3.4 04:31:16 10° N 04:35:45 30° WNW 04:39:13 15° WSW
Cosmos 1486 Rocket 4.5 04:33:27 10° NNW 04:38:46 67° ENE 04:44:04 10° SSE
Meteor 1-27 Rocket 3.9 04:34:58 10° S 04:40:48 87° E 04:46:46 10° N
BREEZE M DEB (TANK) 3.5 04:42:12 13° SW 04:42:12 13° SW 04:43:30 10° S
SAR-Lupe-3 4.5 04:41:45 10° N 04:45:21 72° WNW 04:48:56 10° SSW
S3M 4.2 04:41:12 10° S 04:47:33 80° E 04:53:53 10° N
METEOR-M 4.4 04:42:31 10° N 04:47:39 48° WNW 04:52:46 10° SW
Aureole 1 Rocket 3.9 04:48:06 10° NW 04:51:49 25° W 04:54:51 10° SSW
Envisat 3.7 04:48:54 10° NNE 04:53:56 59° E 04:58:56 10° S
CZ-2C R/B 4.1 04:51:45 10° NNW 04:54:50 22° WNW 04:57:51 10° WSW
BREEZE-M DEB (TANK) 3.7 04:50:38 10° SW 04:55:34 30° SSE 04:57:59 10° E
ALOS 3.4 04:53:16 10° NNW 04:56:57 23° WNW 05:00:37 10° WSW
CENTAUR R/B 4.2 04:50:29 10° NNW 04:58:24 51° NE 05:07:04 10° ESE
Gbstr 26 Del rocket 4.3 04:55:10 10° WNW 05:02:34 59° SW 05:08:42 10° SSE
CZ-2C R/B 3.5 04:58:00 10° SSE 05:03:03 55° ENE 05:08:11 10° N
BREEZE-M DEB (TANK) 4.1 05:02:27 10° NW 05:04:14 14° NNW 05:05:46 10° NNE
SKYMED 2 3.8 05:00:07 10° SSE 05:04:27 78° ENE 05:08:48 10° N
Cosmos 1515 3.7 05:01:47 10° S 05:05:34 89° WNW 05:09:24 10° N
ARIANE 5 R/B 4.5 05:05:57 10° NW 05:06:25 10° WNW 05:06:53 10° WNW
YAOGAN 6 2.5 05:03:48 10° NNE 05:07:20 89° ESE 05:10:48 10° SSW
SJ 16-02 4.3 05:07:40 10° NNE 05:10:45 18° ENE 05:13:49 10° ESE
Cosmos 44 Rocket 4.2 05:07:04 10° SSW 05:12:08 57° ESE 05:17:15 10° NE
Cosmos 1743 2.7 05:08:56 10° N 05:12:49 75° W 05:16:40 10° S
Cosmos 1869 Rocket 3.6 05:09:14 10° NNW 05:13:36 65° W 05:17:59 10° S
Cosmos 1484 Rocket 4.2 05:11:14 10° NNW 05:13:53 19° WNW 05:16:31 10° WSW
Cosmos 1933 Rocket 4.5 05:10:45 10° NNW 05:14:27 27° W 05:18:10 10° SSW
Meteor 2-17 Rocket 4.5 05:10:01 10° NNW 05:16:04 63° W 05:22:06 10° S
CZ-4C R/B 2.8 05:11:44 10° WSW 05:16:15 36° NW 05:21:38 10° NNE
